CW2401 Weather Reports


Display with metric or nautical units.
time (UTC)temp
F
wind
direction
speed
MPH
gust
MPH
rain 1hr
in
rain 24hr
in
rain mn
in
humidity
%
barometer
mb
20240616154040 86 79 1.0 3.0 0.00 0.00 0.00 51 1023.3
20240616153839 86 137 1.0 3.0 0.00 0.00 0.00 50 1023.3
20240616153438 86 104 1.0 2.0 0.00 0.00 0.00 50 1023.3
20240616153235 87 104 1.0 3.0 0.00 0.00 0.00 50 1023.3
20240616153036 87 105 1.0 3.0 0.00 0.00 0.00 49 1023.3
20240616152837 87 104 1.0 3.0 0.00 0.00 0.00 51 1023.4
20240616152633 87 101 1.0 3.0 0.00 0.00 0.00 51 1023.4
20240616152434 87 101 1.0 3.0 0.00 0.00 0.00 52 1023.3
20240616152232 87 113 1.0 3.0 0.00 0.00 0.00 53 1023.3
20240616152030 87 112 1.0 3.0 0.00 0.00 0.00 51 1023.3
20240616151829 87 111 1.0 3.0 0.00 0.00 0.00 50 1023.3
20240616151630 87 170 1.0 3.0 0.00 0.00 0.00 50 1023.3
20240616151430 87 171 1.0 3.0 0.00 0.00 0.00 51 1023.4
20240616151231 87 170 1.0 3.0 0.00 0.00 0.00 51 1023.4
20240616151028 87 171 1.0 3.0 0.00 0.00 0.00 49 1023.4
20240616150627 87 126 1.0 3.0 0.00 0.00 0.00 51 1023.4
20240616150427 87 123 1.0 3.0 0.00 0.00 0.00 50 1023.4
20240616150225 87 78 1.0 2.0 0.00 0.00 0.00 50 1023.4
20240616150027 87 78 1.0 5.0 0.00 0.00 0.00 49 1023.3
20240616145826 88 78 1.0 5.0 0.00 0.00 0.00 50 1023.3
20240616145426 88 80 1.0 5.0 0.00 0.00 0.00 52 1023.3
20240616145224 88 79 1.0 5.0 0.00 0.00 0.00 49 1023.3
20240616145023 88 53 1.0 5.0 0.00 0.00 0.00 51 1023.3
20240616144822 88 91 1.0 5.0 0.00 0.00 0.00 51 1023.4
20240616144622 88 94 1.0 5.0 0.00 0.00 0.00 51 1023.4
20240616144421 88 106 1.0 4.0 0.00 0.00 0.00 54 1023.4
20240616144223 87 107 1.0 4.0 0.00 0.00 0.00 54 1023.4
20240616143620 87 36 1.0 3.0 0.00 0.00 0.00 51 1023.4
20240616143420 87 81 1.0 3.0 0.00 0.00 0.00 52 1023.4
20240616143220 87 88 1.0 3.0 0.00 0.00 0.00 52 1023.4
20240616143020 87 89 1.0 3.0 0.00 0.00 0.00 53 1023.4
20240616142818 87 86 1.0 3.0 0.00 0.00 0.00 54 1023.4
20240616142617 87 86 1.0 3.0 0.00 0.00 0.00 55 1023.4
20240616142415 86 86 1.0 3.0 0.00 0.00 0.00 55 1023.4
20240616142216 86 86 0.0 2.0 0.00 0.00 0.00 54 1023.4
20240616141817 86 86 1.0 2.0 0.00 0.00 0.00 55 1023.5
20240616141616 85 84 1.0 4.0 0.00 0.00 0.00 56 1023.4
20240616141215 85 84 1.0 4.0 0.00 0.00 0.00 58 1023.4
20240616141016 85 84 1.0 4.0 0.00 0.00 0.00 56 1023.4
20240616140816 85 84 1.0 5.0 0.00 0.00 0.00 58 1023.4
20240616140616 85 117 1.0 5.0 0.00 0.00 0.00 56 1023.4
20240616140416 84 117 1.0 5.0 0.00 0.00 0.00 60 1023.3
20240616135815 84 115 1.0 5.0 0.00 0.00 0.00 61 1023.3
20240616135614 84 115 0.0 5.0 0.00 0.00 0.00 63 1023.4
20240616135414 83 322 0.0 1.0 0.00 0.00 0.00 63 1023.4
20240616135215 83 320 0.0 1.0 0.00 0.00 0.00 63 1023.4
20240616135013 83 320 0.0 1.0 0.00 0.00 0.00 64 1023.5
20240616134813 83 319 0.0 2.0 0.00 0.00 0.00 66 1023.4
20240616134613 83 319 0.0 2.0 0.00 0.00 0.00 65 1023.4
20240616134414 82 319 0.0 2.0 0.00 0.00 0.00 65 1023.4
20240616134214 82 319 0.0 2.0 0.00 0.00 0.00 68 1023.4
20240616134014 82 138 0.0 2.0 0.00 0.00 0.00 68 1023.4
20240616133813 81 137 0.0 2.0 0.00 0.00 0.00 69 1023.4
20240616133613 81 137 0.0 2.0 0.00 0.00 0.00 70 1023.4
20240616133413 81 137 1.0 2.0 0.00 0.00 0.00 70 1023.5
20240616133214 80 138 1.0 2.0 0.00 0.00 0.00 73 1023.5
20240616133013 80 137 1.0 2.0 0.00 0.00 0.00 70 1023.5
20240616132813 80 132 0.0 2.0 0.00 0.00 0.00 70 1023.5
20240616132614 80 101 0.0 2.0 0.00 0.00 0.00 70 1023.5
20240616132415 80 101 0.0 2.0 0.00 0.00 0.00 70 1023.5
20240616132214 80 101 0.0 2.0 0.00 0.00 0.00 73 1023.5
20240616132015 79 104 0.0 2.0 0.00 0.00 0.00 75 1023.4
20240616131815 79 104 0.0 2.0 0.00 0.00 0.00 75 1023.4
20240616131614 78 104 0.0 2.0 0.00 0.00 0.00 75 1023.4
20240616131213 78 145 0.0 2.0 0.00 0.00 0.00 77 1023.4
20240616131016 78 139 0.0 2.0 0.00 0.00 0.00 77 1023.3
20240616130615 77 192 1.0 6.0 0.00 0.00 0.00 77 1023.1
20240616130214 76 199 1.0 6.0 0.00 0.00 0.00 80 1023.2
20240616130013 76 98 1.0 6.0 0.00 0.00 0.00 81 1023.1
20240616125814 75 138 1.0 5.0 0.00 0.00 0.00 81 1023.2
20240616125614 75 109 1.0 5.0 0.00 0.00 0.00 83 1023.1
20240616125413 74 105 1.0 5.0 0.00 0.00 0.00 84 1023.2
20240616125214 74 107 1.0 5.0 0.00 0.00 0.00 85 1023.2
20240616125014 73 92 1.0 5.0 0.00 0.00 0.00 85 1023.2
20240616124814 73 81 0.0 2.0 0.00 0.00 0.00 86 1023.2
20240616124615 72 74 0.0 1.0 0.00 0.00 0.00 87 1023.2
20240616124414 72 73 0.0 1.0 0.00 0.00 0.00 89 1023.2
20240616124214 71 74 0.0 1.0 0.00 0.00 0.00 89 1023.2
20240616124015 71 74 0.0 1.0 0.00 0.00 0.00 89 1023.1
20240616123813 71 73 0.0 1.0 0.00 0.00 0.00 89 1023.1
20240616123614 70 73 0.0 2.0 0.00 0.00 0.00 89 1023.1
20240616123413 70 71 0.0 2.0 0.00 0.00 0.00 90 1023.2
20240616123215 70 69 0.0 2.0 0.00 0.00 0.00 90 1023.2
20240616122813 69 69 0.0 2.0 0.00 0.00 0.00 91 1023.3
20240616122614 69 69 0.0 2.0 0.00 0.00 0.00 91 1023.2
20240616122215 69 69 0.0 1.0 0.00 0.00 0.00 91 1023.0
20240616121813 68 69 0.0 1.0 0.00 0.00 0.00 91 1023.0
20240616121614 68 69 0.0 1.0 0.00 0.00 0.00 91 1022.9
20240616121414 68 68 0.0 0.0 0.00 0.00 0.00 91 1022.9
20240616121013 68 69 0.0 0.0 0.00 0.00 0.00 92 1022.7
20240616120815 68 69 0.0 0.0 0.00 0.00 0.00 92 1022.7
20240616120614 68 69 0.0 0.0 0.00 0.00 0.00 92 1022.6
20240616120414 67 69 0.0 0.0 0.00 0.00 0.00 92 1022.7
20240616120214 67 69 0.0 0.0 0.00 0.00 0.00 91 1022.7
20240616120013 67 69 0.0 0.0 0.00 0.00 0.00 91 1022.6
20240616115814 67 69 0.0 0.0 0.00 0.00 0.00 91 1022.6
20240616115613 67 69 0.0 0.0 0.00 0.00 0.00 91 1022.6
20240616115413 67 69 0.0 0.0 0.00 0.00 0.00 91 1022.6
20240616115216 67 69 0.0 0.0 0.00 0.00 0.00 91 1022.6
20240616115013 67 69 0.0 0.0 0.00 0.00 0.00 91 1022.6
20240616114815 67 69 0.0 0.0 0.00 0.00 0.00 91 1022.5
20240616114614 66 69 0.0 0.0 0.00 0.00 0.00 91 1022.5
20240616114415 66 69 0.0 0.0 0.00 0.00 0.00 91 1022.5
20240616114214 66 69 0.0 0.0 0.00 0.00 0.00 91 1022.5
20240616113814 66 69 0.0 0.0 0.00 0.00 0.00 91 1022.5
20240616113613 66 69 0.0 0.0 0.00 0.00 0.00 91 1022.5
20240616113414 66 69 0.0 0.0 0.00 0.00 0.00 91 1022.5
20240616113214 66 69 0.0 0.0 0.00 0.00 0.00 91 1022.5
20240616113014 66 69 0.0 0.0 0.00 0.00 0.00 91 1022.5
20240616112814 66 69 0.0 0.0 0.00 0.00 0.00 91 1022.4
20240616112614 66 69 0.0 0.0 0.00 0.00 0.00 91 1022.4
20240616112011 65 69 0.0 0.0 0.00 0.00 0.00 91 1022.2
20240616111812 65 69 0.0 0.0 0.00 0.00 0.00 91 1022.1
20240616111611 65 69 0.0 0.0 0.00 0.00 0.00 91 1022.2
20240616111412 65 69 0.0 0.0 0.00 0.00 0.00 91 1022.2
20240616111213 65 69 0.0 0.0 0.00 0.00 0.00 91 1022.2
20240616111013 65 69 0.0 0.0 0.00 0.00 0.00 91 1022.2
20240616110611 65 69 0.0 0.0 0.00 0.00 0.00 91 1022.1
20240616110413 65 69 0.0 0.0 0.00 0.00 0.00 91 1022.0
20240616110209 65 69 0.0 0.0 0.00 0.00 0.00 91 1022.0
20240616105807 65 69 0.0 0.0 0.00 0.00 0.00 91 1022.0
20240616105403 65 69 0.0 0.0 0.00 0.00 0.00 91 1022.0
20240616105203 65 69 0.0 0.0 0.00 0.00 0.00 91 1022.0
20240616105000 65 69 0.0 0.0 0.00 0.00 0.00 91 1022.0
20240616104759 65 69 0.0 0.0 0.00 0.00 0.00 90 1022.0
20240616104555 65 69 0.0 0.0 0.00 0.00 0.00 90 1022.0
20240616104355 65 69 0.0 0.0 0.00 0.00 0.00 90 1022.0
20240616104154 65 69 0.0 0.0 0.00 0.00 0.00 90 1021.9
20240616103953 65 69 0.0 0.0 0.00 0.00 0.00 90 1021.9
20240616103751 65 69 0.0 0.0 0.00 0.00 0.00 90 1021.9
20240616103551 65 69 0.0 0.0 0.00 0.00 0.00 90 1021.8
20240616103347 65 69 0.0 0.0 0.00 0.00 0.00 90 1021.8
20240616103147 65 69 0.0 0.0 0.00 0.00 0.00 90 1021.7
20240616102944 65 69 0.0 0.0 0.00 0.00 0.00 90 1021.7
20240616102744 65 69 0.0 0.0 0.00 0.00 0.00 90 1021.7
20240616102542 65 69 0.0 0.0 0.00 0.00 0.00 90 1021.7
20240616102340 65 69 0.0 0.0 0.00 0.00 0.00 90 1021.8
20240616102139 65 69 0.0 0.0 0.00 0.00 0.00 90 1021.9
20240616101937 65 69 0.0 0.0 0.00 0.00 0.00 90 1021.8
20240616101738 65 69 0.0 0.0 0.00 0.00 0.00 90 1021.9
20240616101538 65 69 0.0 0.0 0.00 0.00 0.00 90 1021.9
20240616101337 65 69 0.0 0.0 0.00 0.00 0.00 90 1021.8
20240616101139 65 69 0.0 0.0 0.00 0.00 0.00 90 1021.8
20240616100939 65 69 0.0 0.0 0.00 0.00 0.00 90 1021.8
20240616100738 65 69 0.0 0.0 0.00 0.00 0.00 90 1021.8
20240616100536 65 69 0.0 1.0 0.00 0.00 0.00 90 1021.7
20240616100334 65 69 0.0 1.0 0.00 0.00 0.00 90 1021.7
20240616100133 65 69 0.0 1.0 0.00 0.00 0.00 90 1021.7
20240616095932 65 69 0.0 1.0 0.00 0.00 0.00 90 1021.7
20240616095527 65 69 0.0 0.0 0.00 0.00 0.00 90 1021.6
20240616095325 65 69 0.0 0.0 0.00 0.00 0.00 90 1021.6
20240616095124 65 69 0.0 0.0 0.00 0.00 0.00 90 1021.6
20240616094721 65 69 0.0 0.0 0.00 0.00 0.00 90 1021.6
20240616094520 65 69 0.0 0.0 0.00 0.00 0.00 90 1021.6
20240616093914 65 69 0.0 0.0 0.00 0.00 0.00 90 1021.7
20240616093714 65 69 0.0 0.0 0.00 0.00 0.00 90 1021.7
20240616093513 65 69 0.0 0.0 0.00 0.00 0.00 90 1021.7
20240616093312 65 69 0.0 0.0 0.00 0.00 0.00 90 1021.6
20240616093112 65 69 0.0 0.0 0.00 0.00 0.00 90 1021.5
20240616092912 65 69 0.0 0.0 0.00 0.00 0.00 90 1021.5
20240616092709 65 69 0.0 0.0 0.00 0.00 0.00 90 1021.4
20240616092509 65 69 0.0 0.0 0.00 0.00 0.00 90 1021.4
20240616092309 65 69 0.0 0.0 0.00 0.00 0.00 89 1021.4
20240616092106 65 69 0.0 0.0 0.00 0.00 0.00 89 1021.4
20240616091904 65 69 0.0 0.0 0.00 0.00 0.00 89 1021.3
20240616091701 65 69 0.0 0.0 0.00 0.00 0.00 89 1021.3
20240616091500 65 69 0.0 0.0 0.00 0.00 0.00 89 1021.3
20240616091301 65 69 0.0 0.0 0.00 0.00 0.00 89 1021.2
20240616091100 65 69 0.0 0.0 0.00 0.00 0.00 89 1021.2
20240616090859 65 69 0.0 0.0 0.00 0.00 0.00 89 1021.2
20240616090701 65 69 0.0 0.0 0.00 0.00 0.00 89 1021.2
20240616090457 65 69 0.0 0.0 0.00 0.00 0.00 89 1021.1
20240616090256 65 69 0.0 0.0 0.00 0.00 0.00 89 1021.1
20240616090056 65 69 0.0 0.0 0.00 0.00 0.00 89 1021.1
20240616085853 65 69 0.0 0.0 0.00 0.00 0.00 89 1021.1
20240616085654 65 69 0.0 0.0 0.00 0.00 0.00 89 1021.1
20240616085452 65 69 0.0 0.0 0.00 0.00 0.00 89 1021.0
20240616085249 65 69 0.0 0.0 0.00 0.00 0.00 89 1021.0
20240616085047 65 69 0.0 0.0 0.00 0.00 0.00 89 1021.0
20240616084845 65 69 0.0 0.0 0.00 0.00 0.00 88 1021.0
20240616084646 65 69 0.0 0.0 0.00 0.00 0.00 88 1020.9
20240616084446 65 69 0.0 0.0 0.00 0.00 0.00 88 1020.9
20240616084245 65 69 0.0 0.0 0.00 0.00 0.00 88 1021.0
20240616083843 65 69 0.0 0.0 0.00 0.00 0.00 88 1020.9
20240616083644 65 69 0.0 0.0 0.00 0.00 0.00 88 1020.9
20240616083442 65 69 0.0 0.0 0.00 0.00 0.00 88 1020.9
20240616083243 65 69 0.0 0.0 0.00 0.00 0.00 88 1020.9
20240616083043 65 69 0.0 0.0 0.00 0.00 0.00 88 1020.9
20240616082642 65 69 0.0 0.0 0.00 0.00 0.00 88 1020.8
20240616082442 65 69 0.0 0.0 0.00 0.00 0.00 88 1020.8
20240616081840 65 69 0.0 0.0 0.00 0.00 0.00 88 1020.8
20240616081638 65 69 0.0 0.0 0.00 0.00 0.00 88 1020.8
20240616081435 65 69 0.0 0.0 0.00 0.00 0.00 87 1020.7
20240616081235 65 69 0.0 0.0 0.00 0.00 0.00 87 1020.7
20240616081036 65 69 0.0 0.0 0.00 0.00 0.00 87 1020.7
20240616080835 65 69 0.0 0.0 0.00 0.00 0.00 87 1020.7
20240616080433 65 69 0.0 0.0 0.00 0.00 0.00 87 1020.7
20240616075834 65 69 0.0 0.0 0.00 0.00 0.00 87 1020.6
20240616075634 65 69 0.0 0.0 0.00 0.00 0.00 87 1020.6
20240616075431 65 69 0.0 0.0 0.00 0.00 0.00 87 1020.7
20240616075230 65 69 0.0 0.0 0.00 0.00 0.00 87 1020.6
20240616075027 65 69 0.0 0.0 0.00 0.00 0.00 87 1020.6
20240616074826 65 69 0.0 0.0 0.00 0.00 0.00 87 1020.7
20240616074625 65 69 0.0 0.0 0.00 0.00 0.00 87 1020.6
20240616074424 65 69 0.0 0.0 0.00 0.00 0.00 87 1020.6
20240616074223 65 69 0.0 0.0 0.00 0.00 0.00 87 1020.7
20240616074022 65 69 0.0 0.0 0.00 0.00 0.00 87 1020.6
20240616073817 66 69 0.0 0.0 0.00 0.00 0.00 87 1020.6
20240616073617 66 69 0.0 0.0 0.00 0.00 0.00 87 1020.6
20240616073415 66 69 0.0 0.0 0.00 0.00 0.00 87 1020.6
20240616073213 66 69 0.0 0.0 0.00 0.00 0.00 87 1020.6
20240616073013 66 69 0.0 0.0 0.00 0.00 0.00 87 1020.6
20240616072809 66 69 0.0 0.0 0.00 0.00 0.00 87 1020.5
20240616072611 66 69 0.0 0.0 0.00 0.00 0.00 87 1020.5
20240616072408 66 69 0.0 0.0 0.00 0.00 0.00 87 1020.5
20240616072207 66 69 0.0 0.0 0.00 0.00 0.00 86 1020.5
20240616071807 66 69 0.0 0.0 0.00 0.00 0.00 86 1020.4
20240616071607 66 69 0.0 0.0 0.00 0.00 0.00 86 1020.4
20240616071410 66 69 0.0 0.0 0.00 0.00 0.00 86 1020.3
20240616071207 66 69 0.0 0.0 0.00 0.00 0.00 86 1020.3
20240616071008 66 69 0.0 0.0 0.00 0.00 0.00 86 1020.3
20240616070805 66 69 0.0 0.0 0.00 0.00 0.00 86 1020.3
20240616070603 66 69 0.0 0.0 0.00 0.00 0.00 86 1020.2
20240616070202 66 69 0.0 0.0 0.00 0.01 0.00 86 1020.3
20240616065959 66 69 0.0 0.0 0.00 0.01 0.00 86 1020.3
20240616065757 66 69 0.0 0.0 0.00 0.01 0.00 86 1020.2
20240616065354 66 69 0.0 0.0 0.00 0.01 0.00 86 1020.2
20240616065154 66 69 0.0 0.0 0.00 0.01 0.00 86 1020.3
20240616064953 66 69 0.0 0.0 0.00 0.01 0.00 86 1020.2
20240616064753 66 69 0.0 0.0 0.00 0.01 0.00 85 1020.3
20240616064553 66 69 0.0 0.0 0.00 0.01 0.00 85 1020.3
20240616064349 66 69 0.0 0.0 0.00 0.01 0.00 86 1020.3
20240616064149 66 69 0.0 0.0 0.00 0.01 0.00 86 1020.2
20240616063947 66 69 0.0 0.0 0.00 0.01 0.00 86 1020.2
20240616063745 66 69 0.0 0.0 0.00 0.01 0.00 86 1020.2
20240616063543 66 69 0.0 0.0 0.00 0.01 0.00 86 1020.2
20240616063341 66 69 0.0 0.0 0.00 0.01 0.00 85 1020.2
20240616062939 66 69 0.0 0.0 0.00 0.01 0.00 85 1020.2
20240616062738 66 69 0.0 0.0 0.00 0.01 0.00 86 1020.2
20240616062537 66 69 0.0 0.0 0.00 0.01 0.00 85 1020.2
20240616062337 66 69 0.0 0.0 0.00 0.01 0.00 85 1020.3
20240616062137 66 69 0.0 0.0 0.00 0.01 0.00 85 1020.3
20240616061938 66 69 0.0 0.0 0.00 0.01 0.00 85 1020.3
20240616061738 67 69 0.0 0.0 0.00 0.01 0.00 85 1020.3
20240616061536 67 69 0.0 0.0 0.00 0.01 0.00 85 1020.3
20240616061335 67 69 0.0 0.0 0.00 0.01 0.00 85 1020.3
20240616061136 67 69 0.0 0.0 0.00 0.01 0.00 85 1020.3
20240616060933 67 69 0.0 0.0 0.00 0.01 0.00 85 1020.3
20240616060734 67 69 0.0 0.0 0.00 0.01 0.00 85 1020.3
20240616060535 67 69 0.0 0.0 0.00 0.01 0.00 85 1020.3
20240616060334 67 69 0.0 0.0 0.00 0.01 0.00 85 1020.3
20240616060133 67 69 0.0 0.0 0.00 0.01 0.00 85 1020.3
20240616055931 67 69 0.0 0.0 0.00 0.01 0.00 85 1020.3
20240616055732 67 69 0.0 0.0 0.00 0.01 0.00 85 1020.3
20240616055530 67 69 0.0 0.0 0.00 0.01 0.00 85 1020.2
20240616055329 67 69 0.0 0.0 0.00 0.01 0.00 85 1020.3
20240616055126 67 69 0.0 0.0 0.00 0.01 0.00 85 1020.3
20240616054926 67 69 0.0 0.0 0.00 0.01 0.00 85 1020.3
20240616054723 67 69 0.0 0.0 0.00 0.01 0.00 85 1020.3
20240616054524 67 69 0.0 0.0 0.00 0.01 0.00 85 1020.3
20240616054322 67 69 0.0 0.0 0.00 0.01 0.00 85 1020.3
20240616054120 67 69 0.0 0.0 0.00 0.01 0.00 85 1020.3
20240616053919 67 69 0.0 0.0 0.00 0.01 0.00 85 1020.3
20240616053519 67 69 0.0 0.0 0.00 0.01 0.00 85 1020.3
20240616053320 67 69 0.0 0.0 0.00 0.01 0.00 85 1020.3
20240616052919 67 69 0.0 0.0 0.00 0.01 0.00 84 1020.3
20240616052715 67 69 0.0 0.0 0.00 0.01 0.00 84 1020.4
20240616052514 67 69 0.0 0.0 0.00 0.01 0.00 84 1020.3
20240616052313 67 69 0.0 0.0 0.00 0.01 0.00 84 1020.3
20240616052114 67 69 0.0 0.0 0.00 0.01 0.00 84 1020.3
20240616051712 67 69 0.0 0.0 0.00 0.01 0.00 84 1020.3
20240616051512 67 69 0.0 0.0 0.00 0.01 0.00 84 1020.4
20240616051109 68 69 0.0 0.0 0.00 0.01 0.00 84 1020.3
20240616050910 68 69 0.0 0.0 0.00 0.01 0.00 84 1020.3
20240616050709 68 69 0.0 0.0 0.00 0.01 0.00 84 1020.3
20240616050309 68 69 0.0 0.0 0.00 0.01 0.00 83 1020.3
20240616050110 68 69 0.0 0.0 0.00 0.01 0.00 83 1020.3
20240616045707 68 69 0.0 0.0 0.00 0.01 0.00 83 1020.4
20240616045505 68 69 0.0 0.0 0.00 0.01 0.00 83 1020.4
20240616045306 68 69 0.0 0.0 0.00 0.01 0.00 83 1020.4
20240616044859 68 69 0.0 0.0 0.00 0.01 0.00 83 1020.4
20240616044258 69 69 0.0 0.0 0.00 0.01 0.00 83 1020.4
20240616044055 69 69 0.0 0.0 0.00 0.01 0.00 82 1020.4
20240616043853 69 69 0.0 0.0 0.00 0.01 0.00 82 1020.4
20240616043452 69 69 0.0 0.0 0.00 0.01 0.00 82 1020.4
20240616043250 69 69 0.0 0.0 0.00 0.01 0.00 82 1020.4
20240616043047 69 69 0.0 0.0 0.00 0.01 0.00 82 1020.4
20240616042643 69 69 0.0 0.0 0.00 0.01 0.00 83 1020.3
20240616042442 69 69 0.0 0.0 0.00 0.01 0.00 82 1020.3
20240616042241 69 69 0.0 0.0 0.00 0.01 0.00 82 1020.3
20240616041841 69 69 0.0 0.0 0.00 0.01 0.00 82 1020.3
20240616041440 69 69 0.0 0.0 0.00 0.01 0.00 81 1020.3
20240616041037 70 69 0.0 0.0 0.00 0.01 0.00 81 1020.3
20240616040835 70 69 0.0 0.0 0.00 0.01 0.00 81 1020.3
20240616040436 70 69 0.0 0.0 0.00 0.01 0.00 81 1020.1
20240616040235 70 69 0.0 0.0 0.00 0.01 0.00 81 1020.2
20240616035831 70 69 0.0 0.0 0.00 0.01 0.01 80 1020.2
20240616035631 70 69 0.0 0.0 0.00 0.01 0.01 80 1020.2
20240616035230 70 69 0.0 0.0 0.00 0.01 0.01 80 1020.1
20240616035030 70 69 0.0 0.0 0.00 0.01 0.01 80 1020.1
20240616034827 70 69 0.0 0.0 0.00 0.01 0.01 80 1020.1
20240616034627 70 69 0.0 0.0 0.00 0.01 0.01 80 1020.1
20240616034427 70 69 0.0 0.0 0.00 0.01 0.01 80 1020.1
20240616034225 70 69 0.0 0.0 0.00 0.01 0.01 80 1020.2
20240616034022 70 69 0.0 0.0 0.00 0.01 0.01 80 1020.1
20240616033023 71 69 0.0 0.0 0.00 0.01 0.01 80 1020.0
20240616032821 71 69 0.0 0.0 0.00 0.01 0.01 80 1020.1
20240616032622 71 69 0.0 0.0 0.00 0.01 0.01 80 1020.1
20240616032421 71 69 0.0 0.0 0.00 0.01 0.01 80 1020.0
20240616032220 71 69 0.0 0.0 0.00 0.01 0.01 80 1020.0
20240616032020 71 69 0.0 0.0 0.00 0.01 0.01 80 1020.0
20240616031820 71 69 0.0 0.0 0.00 0.01 0.01 80 1019.9
20240616031621 71 69 0.0 0.0 0.00 0.01 0.01 80 1019.9
20240616031422 71 69 0.0 0.0 0.00 0.01 0.01 80 1019.9
20240616031219 71 69 0.0 0.0 0.00 0.01 0.01 80 1020.0
20240616031017 71 69 0.0 0.0 0.00 0.01 0.01 80 1020.0
20240616030817 71 69 0.0 0.0 0.00 0.01 0.01 80 1020.0
20240616030613 71 69 0.0 0.0 0.00 0.01 0.01 80 1019.9
20240616030413 71 69 0.0 0.0 0.00 0.01 0.01 81 1019.9
20240616030211 71 69 0.0 0.0 0.00 0.01 0.01 81 1020.0
20240616030008 71 69 0.0 0.0 0.00 0.01 0.01 80 1019.9
20240616025808 71 69 0.0 0.0 0.00 0.01 0.01 80 1019.9
20240616025605 71 69 0.0 0.0 0.00 0.01 0.01 79 1019.9
20240616025207 72 69 0.0 0.0 0.00 0.01 0.01 79 1019.8
20240616025003 72 69 0.0 0.0 0.00 0.01 0.01 79 1019.8
20240616024801 72 69 0.0 0.0 0.00 0.01 0.01 79 1019.8
20240616024601 72 69 0.0 0.0 0.00 0.01 0.01 79 1019.7
20240616024200 72 69 0.0 0.0 0.00 0.01 0.01 79 1019.8
20240616023959 72 69 0.0 0.0 0.00 0.01 0.01 78 1019.8
20240616023757 72 69 0.0 0.0 0.00 0.01 0.01 78 1019.8
20240616023353 72 69 0.0 0.0 0.00 0.01 0.01 78 1019.8
20240616023153 72 69 0.0 0.0 0.00 0.01 0.01 78 1019.8
20240616022953 73 69 0.0 0.0 0.00 0.01 0.01 78 1019.7
20240616022749 73 69 0.0 0.0 0.00 0.01 0.01 78 1019.7
20240616022547 73 69 0.0 0.0 0.00 0.01 0.01 78 1019.7
20240616022346 73 69 0.0 0.0 0.00 0.01 0.01 77 1019.7
20240616022143 73 69 0.0 0.0 0.00 0.01 0.01 78 1019.6
20240616021943 73 69 0.0 0.0 0.00 0.01 0.01 77 1019.6
20240616021544 73 69 0.0 0.0 0.00 0.01 0.01 77 1019.5
20240616021341 73 69 0.0 0.0 0.00 0.01 0.01 77 1019.5
20240616021141 73 69 0.0 0.0 0.00 0.01 0.01 77 1019.4
20240616020941 74 69 0.0 0.0 0.00 0.01 0.01 77 1019.5
20240616020742 74 69 0.0 0.0 0.00 0.01 0.01 77 1019.5
20240616020341 74 69 0.0 0.0 0.00 0.01 0.01 77 1019.4
20240616020140 74 69 0.0 0.0 0.00 0.01 0.01 77 1019.4
20240616015939 74 69 0.0 0.0 0.00 0.01 0.01 77 1019.3
20240616015740 74 69 0.0 0.0 0.00 0.01 0.01 77 1019.3
20240616015540 74 69 0.0 0.0 0.00 0.01 0.01 77 1019.3
20240616015340 74 69 0.0 0.0 0.00 0.01 0.01 77 1019.2
20240616015139 74 69 0.0 0.0 0.00 0.01 0.01 78 1019.2
20240616014940 74 69 0.0 0.0 0.00 0.01 0.01 78 1019.2
20240616014740 74 69 0.0 0.0 0.00 0.01 0.01 77 1019.2
20240616014537 75 69 0.0 0.0 0.00 0.01 0.01 77 1019.2
20240616014335 75 69 0.0 0.0 0.00 0.01 0.01 78 1019.2
20240616014135 75 69 0.0 0.0 0.00 0.01 0.01 78 1019.1
20240616013934 75 69 0.0 0.0 0.00 0.01 0.01 77 1019.0
20240616013734 75 69 0.0 0.0 0.00 0.01 0.01 77 1018.9
20240616013534 75 69 0.0 0.0 0.00 0.01 0.01 76 1018.9
20240616013333 75 69 0.0 0.0 0.00 0.01 0.01 77 1018.9
20240616013134 75 69 0.0 0.0 0.00 0.01 0.01 76 1018.9
20240616012934 75 69 0.0 0.0 0.00 0.01 0.01 75 1018.8
20240616012733 75 69 0.0 0.0 0.00 0.01 0.01 76 1018.8
20240616012331 76 69 0.0 0.0 0.00 0.01 0.01 76 1018.8
20240616012129 76 69 0.0 0.0 0.00 0.01 0.01 75 1018.8
20240616011927 76 69 0.0 0.0 0.00 0.01 0.01 75 1018.7
20240616011725 76 69 0.0 0.0 0.00 0.01 0.01 74 1018.6
20240616011524 76 69 0.0 0.0 0.00 0.01 0.01 74 1018.6
20240616011324 76 69 0.0 0.0 0.00 0.01 0.01 75 1018.6
20240616011123 76 69 0.0 0.0 0.00 0.01 0.01 75 1018.7
20240616010723 77 69 0.0 0.0 0.00 0.01 0.01 74 1018.6
20240616010522 77 69 0.0 0.0 0.00 0.01 0.01 74 1018.6
20240616010321 77 69 0.0 0.0 0.00 0.01 0.01 74 1018.6
20240616010122 77 69 0.0 0.0 0.00 0.01 0.01 74 1018.5
20240616005917 77 69 0.0 0.0 0.00 0.01 0.01 73 1018.5
20240616005516 78 69 0.0 0.0 0.00 0.01 0.01 73 1018.5
20240616005111 78 69 0.0 0.0 0.00 0.01 0.01 73 1018.5
20240616004911 78 69 0.0 0.0 0.00 0.01 0.01 72 1018.4
20240616004713 78 69 0.0 0.0 0.00 0.01 0.01 72 1018.3
20240616004510 78 69 0.0 0.0 0.00 0.01 0.01 72 1018.3
20240616004309 78 69 0.0 0.0 0.00 0.01 0.01 71 1018.3
20240616003905 78 69 0.0 0.0 0.00 0.01 0.01 71 1018.2
20240616003702 79 69 0.0 0.0 0.00 0.01 0.01 71 1018.2
20240616003504 79 69 0.0 0.0 0.00 0.01 0.01 71 1018.1
20240616003302 79 69 0.0 0.0 0.00 0.01 0.01 71 1018.1
20240616003100 79 69 0.0 0.0 0.00 0.01 0.01 71 1018.0
20240616002857 79 69 0.0 0.0 0.00 0.01 0.01 70 1018.0
20240616002657 79 69 0.0 0.0 0.00 0.01 0.01 70 1018.0
20240616002459 79 69 0.0 0.0 0.00 0.01 0.01 70 1017.9
20240616002258 79 69 0.0 0.0 0.00 0.01 0.01 70 1017.9
20240616002055 80 69 0.0 0.0 0.00 0.01 0.01 69 1017.9
20240616001854 80 69 0.0 0.0 0.00 0.01 0.01 69 1017.9
20240616001652 80 69 0.0 0.0 0.00 0.01 0.01 70 1017.9
20240616001449 80 69 0.0 0.0 0.00 0.01 0.01 68 1017.9
20240616001250 80 69 0.0 0.0 0.00 0.01 0.01 68 1017.9
20240616001047 80 69 0.0 0.0 0.00 0.01 0.01 68 1017.9
20240616000845 80 69 0.0 0.0 0.00 0.01 0.01 67 1017.9
20240616000644 80 69 0.0 0.0 0.00 0.01 0.01 67 1017.9
20240616000443 81 69 0.0 0.0 0.00 0.01 0.01 67 1017.9
20240616000244 81 69 0.0 0.0 0.00 0.01 0.01 67 1017.8
20240616000043 81 69 0.0 0.0 0.00 0.01 0.01 66 1017.8
20240615235841 81 69 0.0 0.0 0.00 0.01 0.01 65 1017.8
20240615235640 81 69 0.0 0.0 0.00 0.01 0.01 65 1017.7
20240615235442 81 69 0.0 0.0 0.00 0.01 0.01 65 1017.7
20240615235238 81 69 0.0 0.0 0.00 0.01 0.01 64 1017.7
20240615234837 82 69 0.0 0.0 0.00 0.01 0.01 65 1017.6
20240615234637 82 69 0.0 0.0 0.00 0.01 0.01 64 1017.6
20240615234435 82 69 0.0 0.0 0.00 0.01 0.01 62 1017.6
20240615234236 82 74 0.0 0.0 0.00 0.01 0.01 62 1017.6
20240615234033 82 74 0.0 0.0 0.00 0.01 0.01 62 1017.7
20240615233833 82 74 0.0 1.0 0.00 0.01 0.01 62 1017.7
20240615233632 82 74 0.0 1.0 0.00 0.01 0.01 62 1017.6
20240615233429 82 70 0.0 1.0 0.00 0.01 0.01 62 1017.6
20240615233227 83 71 0.0 1.0 0.00 0.01 0.01 62 1017.6
20240615233028 83 71 0.0 1.0 0.00 0.01 0.01 61 1017.6
20240615232828 83 71 0.0 1.0 0.00 0.01 0.01 61 1017.6
20240615232628 83 83 0.0 1.0 0.00 0.01 0.01 61 1017.6
20240615232427 83 83 0.0 1.0 0.00 0.01 0.01 61 1017.6
20240615231824 83 82 0.0 0.0 0.00 0.01 0.01 59 1017.7
20240615231625 83 82 0.0 0.0 0.00 0.01 0.01 59 1017.6
20240615231423 83 84 0.0 1.0 0.00 0.01 0.01 60 1017.6
20240615231024 83 84 0.0 1.0 0.00 0.01 0.01 59 1017.6
20240615230622 83 84 0.0 1.0 0.00 0.01 0.01 61 1017.7
20240615230425 84 84 0.0 1.0 0.00 0.01 0.01 60 1017.7
20240615230224 84 84 0.0 1.0 0.00 0.01 0.01 60 1017.6
20240615230021 84 84 0.0 1.0 0.00 0.01 0.01 59 1017.7
20240615225819 84 84 0.0 5.0 0.00 0.01 0.01 58 1017.6
20240615225621 84 84 0.0 5.0 0.00 0.01 0.01 59 1017.6
20240615225420 84 83 0.0 5.0 0.00 0.01 0.01 60 1017.5
20240615225217 84 83 1.0 5.0 0.00 0.01 0.01 59 1017.5
20240615225014 84 182 0.0 5.0 0.00 0.01 0.01 56 1017.5
20240615224816 84 182 0.0 2.0 0.00 0.01 0.01 60 1017.5
20240615224415 84 98 0.0 2.0 0.00 0.01 0.01 59 1017.5
20240615224011 85 14 0.0 1.0 0.00 0.01 0.01 58 1017.5
20240615223611 85 32 0.0 1.0 0.00 0.01 0.01 57 1017.5
20240615223410 85 32 0.0 1.0 0.00 0.01 0.01 57 1017.5
20240615223210 85 32 0.0 1.0 0.00 0.01 0.01 59 1017.5
20240615223009 85 32 0.0 1.0 0.00 0.01 0.01 57 1017.4
20240615222807 85 32 0.0 1.0 0.00 0.01 0.01 58 1017.4
20240615222607 85 32 0.0 1.0 0.00 0.01 0.01 58 1017.4
20240615222206 85 32 0.0 2.0 0.00 0.01 0.01 57 1017.4
20240615222004 85 32 0.0 2.0 0.00 0.01 0.01 58 1017.4
20240615221604 85 159 0.0 2.0 0.00 0.01 0.01 55 1017.4
20240615221405 85 150 0.0 2.0 0.00 0.01 0.01 56 1017.4
20240615221203 85 149 0.0 1.0 0.00 0.01 0.01 58 1017.4
20240615221003 85 146 0.0 1.0 0.00 0.01 0.01 58 1017.5
20240615220802 86 142 0.0 1.0 0.00 0.01 0.01 59 1017.5
20240615220601 86 139 0.0 1.0 0.00 0.01 0.01 55 1017.4
20240615220400 86 136 0.0 2.0 0.00 0.01 0.01 56 1017.4
20240615220159 86 350 0.0 2.0 0.00 0.01 0.01 56 1017.4
20240615215758 86 5 0.0 2.0 0.00 0.01 0.01 56 1017.3
20240615215600 86 5 0.0 2.0 0.00 0.01 0.01 56 1017.3
20240615215359 86 5 0.0 1.0 0.00 0.01 0.01 55 1017.2
20240615214958 86 5 0.0 2.0 0.00 0.01 0.01 56 1017.2
20240615214759 86 5 0.0 3.0 0.00 0.01 0.01 57 1017.2
20240615214559 86 5 1.0 4.0 0.00 0.01 0.01 54 1017.2
20240615214359 86 5 1.0 4.0 0.00 0.01 0.01 54 1017.2
20240615214159 86 5 1.0 4.0 0.00 0.01 0.01 53 1017.2
20240615214000 86 5 1.0 4.0 0.00 0.01 0.01 51 1017.2
20240615213758 86 5 1.0 4.0 0.00 0.01 0.01 52 1017.3
20240615213359 87 31 0.0 2.0 0.00 0.01 0.01 53 1017.4
20240615213201 87 31 1.0 2.0 0.00 0.01 0.01 55 1017.3
20240615212959 87 31 1.0 5.0 0.00 0.01 0.01 49 1017.3
20240615212758 87 25 1.0 5.0 0.00 0.01 0.01 51 1017.4
20240615212358 86 22 1.0 5.0 0.00 0.01 0.01 49 1017.4
20240615212157 86 313 1.0 5.0 0.00 0.01 0.01 50 1017.3
20240615211956 86 348 1.0 3.0 0.00 0.01 0.01 50 1017.2
20240615211758 87 95 1.0 2.0 0.00 0.01 0.01 56 1017.2
20240615211557 87 96 1.0 2.0 0.00 0.01 0.01 55 1017.1
20240615211356 87 96 1.0 3.0 0.00 0.01 0.01 53 1017.1
20240615210956 87 96 1.0 3.0 0.00 0.01 0.01 56 1017.1
20240615210556 87 42 1.0 3.0 0.00 0.01 0.01 53 1017.1
20240615210356 87 47 1.0 3.0 0.00 0.01 0.01 56 1017.1
20240615210156 87 87 1.0 3.0 0.00 0.01 0.01 56 1017.1
20240615205556 87 88 1.0 3.0 0.00 0.01 0.01 52 1017.2
20240615205358 87 344 1.0 2.0 0.00 0.01 0.01 57 1017.2
20240615205159 87 344 1.0 3.0 0.00 0.01 0.01 55 1017.1
20240615204956 87 355 1.0 3.0 0.00 0.01 0.01 52 1017.1
20240615204756 87 355 1.0 4.0 0.00 0.01 0.01 56 1017.1
20240615204558 87 355 1.0 4.0 0.00 0.01 0.01 56 1017.2
20240615204356 87 355 2.0 4.0 0.00 0.01 0.01 55 1017.1
20240615204201 87 268 1.0 4.0 0.00 0.01 0.01 56 1017.1
20240615203957 87 326 1.0 4.0 0.00 0.01 0.01 52 1017.2
20240615203758 87 355 1.0 6.0 0.00 0.01 0.01 54 1017.2
20240615203559 87 355 1.0 6.0 0.00 0.01 0.01 54 1017.2
20240615203357 87 355 1.0 6.0 0.00 0.01 0.01 54 1017.1
20240615202957 87 355 1.0 6.0 0.00 0.01 0.01 54 1017.2
20240615202756 87 22 1.0 3.0 0.00 0.01 0.01 55 1017.2
20240615202557 87 22 1.0 3.0 0.00 0.01 0.01 53 1017.2
20240615202357 87 22 1.0 3.0 0.00 0.01 0.01 53 1017.2
20240615202157 87 268 1.0 4.0 0.00 0.01 0.01 52 1017.2
20240615201956 87 276 1.0 4.0 0.00 0.01 0.01 51 1017.2
20240615201757 87 276 1.0 4.0 0.00 0.01 0.01 50 1017.1
20240615201556 87 36 1.0 4.0 0.00 0.01 0.01 50 1017.2
20240615201356 87 74 1.0 4.0 0.00 0.01 0.01 51 1017.1
20240615201156 87 119 1.0 2.0 0.00 0.01 0.01 50 1017.2
20240615200956 87 119 1.0 2.0 0.00 0.01 0.01 50 1017.2
20240615200558 87 119 1.0 5.0 0.00 0.01 0.01 52 1017.2
20240615200156 87 339 1.0 5.0 0.00 0.01 0.01 50 1017.3
20240615195957 87 336 1.0 5.0 0.00 0.01 0.01 52 1017.4
20240615195756 87 340 1.0 5.0 0.00 0.01 0.01 51 1017.4
20240615195557 87 355 1.0 3.0 0.00 0.01 0.01 50 1017.4
20240615195356 87 355 1.0 3.0 0.00 0.01 0.01 51 1017.4
20240615195158 87 49 1.0 4.0 0.00 0.01 0.01 50 1017.4
20240615194956 87 49 1.0 4.0 0.00 0.01 0.01 49 1017.4
20240615194758 87 49 1.0 4.0 0.00 0.01 0.01 52 1017.4
20240615194557 87 332 1.0 4.0 0.00 0.01 0.01 50 1017.4
20240615194357 87 332 1.0 4.0 0.00 0.01 0.01 50 1017.5
20240615194157 87 101 1.0 2.0 0.00 0.01 0.01 50 1017.5
20240615193957 87 128 1.0 3.0 0.00 0.01 0.01 50 1017.5
20240615193556 87 133 1.0 4.0 0.00 0.01 0.01 49 1017.5
20240615193358 87 133 1.0 4.0 0.00 0.01 0.01 49 1017.5
20240615192957 87 144 1.0 4.0 0.00 0.01 0.01 50 1017.5
20240615192556 87 9 1.0 4.0 0.00 0.01 0.01 55 1017.5
20240615192358 87 13 1.0 4.0 0.00 0.01 0.01 53 1017.5
20240615192157 87 119 1.0 4.0 0.00 0.01 0.01 51 1017.6
20240615191957 87 119 1.0 4.0 0.00 0.01 0.01 52 1017.5
20240615191757 87 104 1.0 4.0 0.00 0.01 0.01 52 1017.5
20240615191556 87 104 1.0 4.0 0.00 0.01 0.01 53 1017.5
20240615191157 87 5 2.0 4.0 0.00 0.01 0.01 52 1017.6
20240615190558 87 11 1.0 4.0 0.00 0.01 0.01 51 1017.5
20240615190356 87 11 1.0 4.0 0.00 0.01 0.01 53 1017.5
20240615190157 87 158 1.0 3.0 0.00 0.01 0.01 54 1017.5
20240615185758 87 159 1.0 3.0 0.00 0.01 0.01 52 1017.5
20240615185354 87 136 1.0 3.0 0.00 0.01 0.01 52 1017.4
20240615185152 87 143 1.0 3.0 0.00 0.01 0.01 52 1017.4
20240615184951 87 144 1.0 3.0 0.00 0.01 0.01 51 1017.4
20240615184751 87 144 1.0 3.0 0.00 0.01 0.01 49 1017.4
20240615184549 87 144 1.0 3.0 0.00 0.01 0.01 49 1017.4
20240615184146 87 155 1.0 4.0 0.00 0.01 0.01 52 1017.5
20240615183946 87 71 1.0 5.0 0.00 0.01 0.01 52 1017.4
20240615183542 87 74 1.0 5.0 0.00 0.01 0.01 54 1017.4
20240615183340 87 74 1.0 5.0 0.00 0.01 0.01 53 1017.4
20240615182941 86 300 1.0 3.0 0.00 0.01 0.01 58 1017.5
20240615182740 86 93 1.0 3.0 0.00 0.01 0.01 56 1017.5
20240615182340 86 121 1.0 3.0 0.00 0.01 0.01 57 1017.6
20240615182138 86 73 1.0 5.0 0.00 0.01 0.01 56 1017.6
20240615181940 86 107 1.0 6.0 0.00 0.01 0.01 56 1017.6
20240615181737 86 304 1.0 6.0 0.00 0.01 0.01 55 1017.6
20240615181536 86 304 1.0 6.0 0.00 0.01 0.01 55 1017.6
20240615181336 86 303 1.0 6.0 0.00 0.01 0.01 55 1017.7
20240615181138 86 307 1.0 6.0 0.00 0.01 0.01 55 1017.6
20240615180936 86 143 1.0 4.0 0.00 0.01 0.01 55 1017.6
20240615180128 86 355 2.0 6.0 0.00 0.01 0.01 55 1017.7
20240615175927 86 355 2.0 6.0 0.00 0.01 0.01 56 1017.8
20240615175728 86 317 2.0 6.0 0.00 0.01 0.01 55 1017.7
20240615175525 86 315 2.0 6.0 0.00 0.01 0.01 55 1017.8
20240615175325 86 267 1.0 5.0 0.00 0.01 0.01 56 1017.8
20240615175122 85 343 1.0 5.0 0.00 0.01 0.01 58 1017.8
20240615174922 85 350 1.0 3.0 0.00 0.01 0.01 60 1017.8
20240615174720 85 350 1.0 3.0 0.00 0.01 0.01 60 1017.8
20240615174516 85 0 1.0 3.0 0.00 0.01 0.01 60 1017.8
20240615174316 85 0 1.0 3.0 0.00 0.01 0.01 59 1017.9
20240615174113 85 0 1.0 3.0 0.00 0.01 0.01 58 1017.9
20240615173910 85 83 1.0 3.0 0.00 0.01 0.01 58 1017.9
20240615173710 85 68 1.0 4.0 0.00 0.01 0.01 58 1017.9
20240615173308 85 47 2.0 4.0 0.00 0.01 0.01 57 1017.9
20240615173106 85 351 2.0 5.0 0.00 0.01 0.01 57 1018.0
20240615172907 85 321 2.0 5.0 0.00 0.01 0.01 56 1018.0
20240615172706 85 257 2.0 5.0 0.00 0.01 0.01 56 1018.0
20240615172504 85 174 2.0 5.0 0.00 0.01 0.01 54 1018.0
20240615172306 85 180 2.0 5.0 0.00 0.01 0.01 55 1018.1
20240615172103 85 120 2.0 4.0 0.00 0.01 0.01 58 1018.0
20240615171702 85 68 2.0 6.0 0.00 0.01 0.01 57 1018.2
20240615171500 85 323 2.0 6.0 0.00 0.01 0.01 59 1018.2
20240615171302 85 96 2.0 6.0 0.00 0.01 0.01 58 1018.2
20240615171059 85 91 2.0 6.0 0.00 0.01 0.01 61 1018.3
20240615170859 85 269 2.0 5.0 0.00 0.01 0.01 61 1018.3
20240615170657 85 266 2.0 6.0 0.00 0.01 0.01 59 1018.3
20240615170456 85 250 2.0 6.0 0.00 0.01 0.01 58 1018.3
20240615170257 85 121 2.0 6.0 0.00 0.01 0.01 59 1018.3
20240615170057 85 121 2.0 6.0 0.00 0.01 0.01 58 1018.3
20240615165701 85 75 2.0 6.0 0.00 0.01 0.01 61 1018.4
20240615165459 85 257 2.0 6.0 0.00 0.01 0.01 60 1018.4
20240615165253 85 302 2.0 6.0 0.00 0.01 0.01 58 1018.4
20240615165052 85 133 2.0 6.0 0.00 0.01 0.01 58 1018.4
20240615164858 85 26 2.0 5.0 0.00 0.01 0.01 60 1018.4
20240615164652 85 32 2.0 5.0 0.00 0.01 0.01 59 1018.3
20240615164454 85 81 2.0 4.0 0.00 0.01 0.01 59 1018.4
20240615164254 85 55 2.0 4.0 0.00 0.01 0.01 60 1018.3
20240615164050 85 252 2.0 5.0 0.00 0.01 0.01 60 1018.4
20240615163851 85 84 2.0 5.0 0.00 0.01 0.01 60 1018.4
20240615163650 85 113 2.0 5.0 0.00 0.01 0.01 59 1018.4
20240615163450 85 116 2.0 5.0 0.00 0.01 0.01 59 1018.4
20240615163252 85 149 2.0 5.0 0.00 0.01 0.01 61 1018.5
20240615162650 84 5 2.0 7.0 0.00 0.01 0.01 62 1018.5
20240615162448 84 323 2.0 7.0 0.00 0.01 0.01 61 1018.4
20240615162246 84 339 2.0 7.0 0.00 0.01 0.01 60 1018.5
20240615161845 84 144 1.0 5.0 0.00 0.01 0.01 61 1018.5
20240615161444 84 111 1.0 5.0 0.00 0.01 0.01 62 1018.5
20240615161245 84 178 1.0 5.0 0.00 0.01 0.01 62 1018.4
20240615161044 84 265 2.0 5.0 0.00 0.01 0.01 61 1018.5
20240615160846 84 289 2.0 5.0 0.00 0.01 0.01 62 1018.4
20240615160642 85 338 2.0 5.0 0.00 0.01 0.01 60 1018.4
20240615160240 85 290 1.0 5.0 0.00 0.01 0.01 62 1018.4
20240615160041 85 355 1.0 5.0 0.00 0.01 0.01 62 1018.4
20240615155841 85 141 1.0 5.0 0.00 0.01 0.01 60 1018.4
20240615155640 85 71 1.0 5.0 0.00 0.01 0.01 61 1018.3
20240615155442 85 72 2.0 5.0 0.00 0.01 0.01 61 1018.3
20240615155038 85 305 2.0 5.0 0.00 0.01 0.01 60 1018.3
20240615154838 85 261 2.0 5.0 0.00 0.01 0.01 62 1018.4
20240615154638 84 268 2.0 3.0 0.00 0.01 0.01 63 1018.3
20240615154438 84 106 2.0 3.0 0.00 0.01 0.01 62 1018.3
20240615154240 84 115 2.0 4.0 0.00 0.01 0.01 61 1018.3